| time (UTC) | temp C | wind direction | speed KPH | gust KPH | rain 1hr cm | rain 24hr cm | rain mn cm | humidity % | barometer mb |
| 20260509192358 | 27 | 213 | 4.8 | 11.3 | 0.00 | 0.00 | 0.00 | 45 | 1013.0 |
| 20260509191858 | 27 | 213 | 4.8 | 11.3 | 0.00 | 0.00 | 0.00 | 45 | 1013.0 |
| 20260509191358 | 27 | 213 | 6.4 | 12.9 | 0.00 | 0.00 | 0.00 | 45 | 1013.1 |
| 20260509190854 | 27 | 221 | 4.8 | 12.9 | 0.00 | 0.00 | 0.00 | 47 | 1013.1 |
| 20260509190355 | 27 | 232 | 6.4 | 14.5 | 0.00 | 0.00 | 0.00 | 47 | 1013.2 |
| 20260509185852 | 26 | 246 | 4.8 | 14.5 | 0.00 | 0.00 | 0.00 | 51 | 1013.2 |
| 20260509185352 | 26 | 234 | 6.4 | 12.9 | 0.00 | 0.00 | 0.00 | 50 | 1013.2 |
| 20260509184850 | 26 | 242 | 4.8 | 11.3 | 0.00 | 0.00 | 0.00 | 53 | 1013.3 |
| 20260509184351 | 25 | 240 | 6.4 | 11.3 | 0.00 | 0.00 | 0.00 | 54 | 1013.4 |
| 20260509183849 | 25 | 254 | 6.4 | 11.3 | 0.00 | 0.00 | 0.00 | 55 | 1013.5 |
| 20260509183348 | 25 | 234 | 6.4 | 11.3 | 0.00 | 0.00 | 0.00 | 56 | 1013.4 |
| 20260509182847 | 24 | 236 | 4.8 | 12.9 | 0.00 | 0.00 | 0.00 | 58 | 1013.4 |
| 20260509182347 | 24 | 242 | 4.8 | 11.3 | 0.00 | 0.00 | 0.00 | 58 | 1013.4 |
| 20260509181844 | 24 | 246 | 4.8 | 11.3 | 0.00 | 0.00 | 0.00 | 60 | 1013.5 |
| 20260509181344 | 23 | 250 | 4.8 | 11.3 | 0.00 | 0.00 | 0.00 | 63 | 1013.5 |
| 20260509180843 | 23 | 252 | 3.2 | 9.7 | 0.00 | 0.00 | 0.00 | 64 | 1013.6 |
| 20260509180343 | 23 | 249 | 3.2 | 9.7 | 0.00 | 0.00 | 0.00 | 63 | 1013.6 |
| 20260509175840 | 23 | 252 | 3.2 | 6.4 | 0.00 | 0.00 | 0.00 | 65 | 1013.6 |
| 20260509175612 | 22 | 252 | 1.6 | 6.4 | 0.00 | 0.00 | 0.00 | 66 | 1013.6 |
| 20260509174840 | 22 | 223 | 1.6 | 6.4 | 0.00 | 0.00 | 0.00 | 68 | 1013.7 |
| 20260509174336 | 21 | 223 | 1.6 | 6.4 | 0.00 | 0.00 | 0.00 | 69 | 1013.8 |
| 20260509173836 | 21 | 223 | 3.2 | 6.4 | 0.00 | 0.00 | 0.00 | 70 | 1013.7 |
| 20260509172837 | 21 | 223 | 3.2 | 8.0 | 0.00 | 0.00 | 0.00 | 76 | 1013.8 |
| 20260509172336 | 20 | 223 | 3.2 | 8.0 | 0.00 | 0.00 | 0.00 | 77 | 1013.9 |
| 20260509171837 | 20 | 223 | 3.2 | 6.4 | 0.00 | 0.00 | 0.00 | 79 | 1013.9 |
| 20260509171336 | 19 | 223 | 3.2 | 6.4 | 0.00 | 0.00 | 0.00 | 81 | 1013.9 |
| 20260509170836 | 19 | 223 | 1.6 | 6.4 | 0.00 | 0.00 | 0.00 | 82 | 1014.0 |
| 20260509170336 | 18 | 223 | 1.6 | 6.4 | 0.00 | 0.00 | 0.00 | 84 | 1014.0 |
| 20260509170108 | 18 | 223 | 1.6 | 8.0 | 0.00 | 0.00 | 0.00 | 84 | 1013.9 |
| 20260509165337 | 17 | 223 | 3.2 | 9.7 | 0.00 | 0.00 | 0.00 | 84 | 1014.0 |
| 20260509164837 | 17 | 224 | 3.2 | 9.7 | 0.00 | 0.00 | 0.00 | 83 | 1014.0 |
| 20260509164335 | 17 | 227 | 1.6 | 9.7 | 0.00 | 0.00 | 0.00 | 79 | 1014.0 |
| 20260509163836 | 17 | 227 | 1.6 | 4.8 | 0.00 | 0.00 | 0.00 | 78 | 1014.0 |
| 20260509163331 | 17 | 227 | 1.6 | 4.8 | 0.00 | 0.00 | 0.00 | 78 | 1014.0 |
| 20260509162833 | 16 | 227 | 1.6 | 4.8 | 0.00 | 0.00 | 0.00 | 77 | 1014.1 |
| 20260509162332 | 16 | 227 | 3.2 | 8.0 | 0.00 | 0.00 | 0.00 | 77 | 1014.2 |
| 20260509162056 | 16 | 227 | 3.2 | 9.7 | 0.00 | 0.00 | 0.00 | 76 | 1014.1 |
| 20260509161327 | 16 | 227 | 1.6 | 8.0 | 0.00 | 0.00 | 0.00 | 76 | 1014.1 |
| 20260509161058 | 16 | 227 | 1.6 | 6.4 | 0.00 | 0.00 | 0.00 | 76 | 1014.1 |
| 20260509160327 | 16 | 227 | 1.6 | 4.8 | 0.00 | 0.00 | 0.00 | 76 | 1014.2 |
| 20260509155826 | 16 | 227 | 0.0 | 4.8 | 0.00 | 0.00 | 0.00 | 76 | 1014.2 |
| 20260509155322 | 16 | 227 | 1.6 | 4.8 | 0.00 | 0.00 | 0.00 | 77 | 1014.3 |
| 20260509154555 | 15 | 227 | 1.6 | 4.8 | 0.00 | 0.00 | 0.00 | 77 | 1014.2 |
| 20260509153823 | 15 | 227 | 1.6 | 4.8 | 0.00 | 0.00 | 0.00 | 77 | 1014.2 |
| 20260509153320 | 15 | 227 | 1.6 | 4.8 | 0.00 | 0.00 | 0.00 | 77 | 1014.3 |
| 20260509152319 | 15 | 227 | 0.0 | 4.8 | 0.00 | 0.00 | 0.00 | 76 | 1014.2 |
| 20260509151818 | 15 | 227 | 1.6 | 6.4 | 0.00 | 0.00 | 0.00 | 76 | 1014.3 |
| 20260509151318 | 15 | 227 | 1.6 | 6.4 | 0.00 | 0.00 | 0.00 | 77 | 1014.3 |
| 20260509150817 | 15 | 227 | 1.6 | 4.8 | 0.00 | 0.00 | 0.00 | 77 | 1014.3 |
| 20260509145815 | 15 | 227 | 1.6 | 6.4 | 0.00 | 0.00 | 0.00 | 77 | 1014.3 |
| 20260509144310 | 15 | 227 | 1.6 | 6.4 | 0.00 | 0.00 | 0.00 | 78 | 1014.3 |
| 20260509143810 | 15 | 227 | 1.6 | 4.8 | 0.00 | 0.00 | 0.00 | 78 | 1014.3 |
| 20260509143538 | 15 | 227 | 1.6 | 4.8 | 0.00 | 0.00 | 0.00 | 78 | 1014.2 |
| 20260509143039 | 15 | 227 | 1.6 | 4.8 | 0.00 | 0.00 | 0.00 | 78 | 1014.2 |
| 20260509142307 | 15 | 227 | 1.6 | 4.8 | 0.00 | 0.00 | 0.00 | 78 | 1014.2 |
| 20260509141806 | 15 | 229 | 0.0 | 4.8 | 0.00 | 0.00 | 0.00 | 78 | 1014.1 |
| 20260509140807 | 15 | 229 | 0.0 | 3.2 | 0.00 | 0.00 | 0.00 | 79 | 1014.1 |
| 20260509140538 | 15 | 229 | 0.0 | 3.2 | 0.00 | 0.00 | 0.00 | 79 | 1014.1 |
| 20260509135803 | 15 | 229 | 0.0 | 1.6 | 0.00 | 0.00 | 0.00 | 79 | 1014.1 |
| 20260509135533 | 15 | 229 | 0.0 | 3.2 | 0.00 | 0.00 | 0.00 | 79 | 1014.1 |
| 20260509134803 | 15 | 229 | 0.0 | 3.2 | 0.00 | 0.00 | 0.00 | 79 | 1014.1 |
| 20260509134258 | 15 | 229 | 0.0 | 3.2 | 0.00 | 0.00 | 0.00 | 80 | 1014.0 |
| 20260509133758 | 15 | 229 | 0.0 | 1.6 | 0.00 | 0.00 | 0.00 | 80 | 1014.0 |
| 20260509133530 | 15 | 229 | 1.6 | 4.8 | 0.00 | 0.00 | 0.00 | 80 | 1014.0 |
| 20260509132759 | 15 | 229 | 1.6 | 4.8 | 0.00 | 0.00 | 0.00 | 80 | 1013.9 |
| 20260509132259 | 14 | 229 | 0.0 | 4.8 | 0.00 | 0.00 | 0.00 | 80 | 1013.9 |
| 20260509131757 | 14 | 229 | 1.6 | 4.8 | 0.00 | 0.00 | 0.00 | 81 | 1013.8 |
| 20260509131311 | 14 | 229 | 1.6 | 4.8 | 0.00 | 0.00 | 0.00 | 81 | 1013.8 |
| 20260509130754 | 14 | 229 | 1.6 | 4.8 | 0.00 | 0.00 | 0.00 | 81 | 1013.7 |
| 20260509130306 | 14 | 223 | 1.6 | 4.8 | 0.00 | 0.00 | 0.00 | 81 | 1013.7 |
| 20260509130025 | 14 | 223 | 1.6 | 4.8 | 0.00 | 0.00 | 0.00 | 81 | 1013.6 |
| 20260509125252 | 14 | 223 | 3.2 | 6.4 | 0.00 | 0.00 | 0.00 | 81 | 1013.6 |
| 20260509124749 | 14 | 223 | 3.2 | 6.4 | 0.00 | 0.00 | 0.00 | 82 | 1013.6 |
| 20260509124250 | 14 | 223 | 3.2 | 4.8 | 0.00 | 0.00 | 0.00 | 82 | 1013.5 |
| 20260509123745 | 14 | 223 | 1.6 | 4.8 | 0.00 | 0.00 | 0.00 | 82 | 1013.6 |
| 20260509123246 | 14 | 223 | 0.0 | 3.2 | 0.00 | 0.00 | 0.00 | 83 | 1013.6 |
| 20260509122746 | 13 | 223 | 0.0 | 0.0 | 0.00 | 0.00 | 0.00 | 83 | 1013.5 |
| 20260509122516 | 14 | 223 | 0.0 | 0.0 | 0.00 | 0.00 | 0.00 | 83 | 1013.5 |
| 20260509121742 | 14 | 223 | 0.0 | 0.0 | 0.00 | 0.00 | 0.00 | 83 | 1013.5 |
| 20260509121242 | 14 | 223 | 0.0 | 0.0 | 0.00 | 0.00 | 0.00 | 83 | 1013.5 |
| 20260509120736 | 14 | 223 | 0.0 | 0.0 | 0.00 | 0.00 | 0.00 | 83 | 1013.5 |
| 20260509120237 | 14 | 223 | 0.0 | 0.0 | 0.00 | 0.00 | 0.00 | 83 | 1013.5 |
| 20260509115736 | 14 | 223 | 0.0 | 0.0 | 0.00 | 0.00 | 0.00 | 84 | 1013.5 |
| 20260509115236 | 14 | 223 | 0.0 | 0.0 | 0.00 | 0.00 | 0.00 | 84 | 1013.6 |
| 20260509114734 | 13 | 223 | 0.0 | 0.0 | 0.00 | 0.00 | 0.00 | 84 | 1013.6 |
| 20260509114505 | 14 | 223 | 0.0 | 0.0 | 0.00 | 0.00 | 0.00 | 84 | 1013.5 |
| 20260509113733 | 13 | 223 | 0.0 | 0.0 | 0.00 | 0.00 | 0.00 | 84 | 1013.5 |
| 20260509113235 | 13 | 223 | 0.0 | 0.0 | 0.00 | 0.00 | 0.00 | 85 | 1013.4 |
| 20260509112734 | 13 | 223 | 0.0 | 0.0 | 0.00 | 0.00 | 0.00 | 84 | 1013.4 |
| 20260509112233 | 14 | 223 | 0.0 | 0.0 | 0.00 | 0.00 | 0.00 | 84 | 1013.4 |
| 20260509111730 | 14 | 223 | 0.0 | 0.0 | 0.00 | 0.00 | 0.00 | 85 | 1013.5 |
| 20260509111230 | 14 | 223 | 0.0 | 0.0 | 0.00 | 0.00 | 0.00 | 85 | 1013.6 |
| 20260509110731 | 14 | 223 | 0.0 | 0.0 | 0.00 | 0.00 | 0.00 | 85 | 1013.6 |
| 20260509110230 | 14 | 223 | 0.0 | 0.0 | 0.00 | 0.00 | 0.00 | 85 | 1013.6 |
| 20260509105229 | 14 | 223 | 0.0 | 0.0 | 0.00 | 0.00 | 0.00 | 85 | 1013.6 |
| 20260509104725 | 14 | 223 | 0.0 | 0.0 | 0.00 | 0.00 | 0.00 | 85 | 1013.6 |
| 20260509104225 | 14 | 223 | 0.0 | 0.0 | 0.00 | 0.00 | 0.00 | 85 | 1013.6 |
| 20260509103724 | 14 | 223 | 0.0 | 0.0 | 0.00 | 0.00 | 0.00 | 85 | 1013.6 |
| 20260509103222 | 14 | 223 | 0.0 | 0.0 | 0.00 | 0.00 | 0.00 | 85 | 1013.6 |
| 20260509102720 | 14 | 223 | 0.0 | 0.0 | 0.00 | 0.00 | 0.00 | 85 | 1013.6 |
| 20260509101718 | 14 | 223 | 0.0 | 0.0 | 0.00 | 0.00 | 0.00 | 85 | 1013.7 |
| 20260509101218 | 14 | 223 | 0.0 | 0.0 | 0.00 | 0.00 | 0.00 | 86 | 1013.8 |
| 20260509100716 | 14 | 223 | 0.0 | 0.0 | 0.00 | 0.00 | 0.00 | 85 | 1013.8 |
| 20260509100227 | 14 | 223 | 0.0 | 0.0 | 0.00 | 0.00 | 0.00 | 86 | 1013.8 |
| 20260509095712 | 14 | 223 | 0.0 | 0.0 | 0.00 | 0.00 | 0.00 | 86 | 1013.8 |
| 20260509095213 | 14 | 223 | 1.6 | 4.8 | 0.00 | 0.00 | 0.00 | 86 | 1013.8 |
| 20260509094709 | 15 | 223 | 1.6 | 4.8 | 0.00 | 0.00 | 0.00 | 86 | 1013.8 |
| 20260509094208 | 15 | 223 | 1.6 | 4.8 | 0.00 | 0.00 | 0.00 | 86 | 1013.9 |
| 20260509093708 | 15 | 223 | 1.6 | 4.8 | 0.00 | 0.00 | 0.00 | 86 | 1013.9 |
| 20260509092709 | 15 | 223 | 1.6 | 4.8 | 0.00 | 0.00 | 0.00 | 86 | 1014.0 |
| 20260509092208 | 15 | 223 | 1.6 | 4.8 | 0.00 | 0.00 | 0.00 | 86 | 1014.1 |
| 20260509091939 | 15 | 223 | 1.6 | 3.2 | 0.00 | 0.00 | 0.00 | 86 | 1014.1 |
| 20260509091208 | 15 | 223 | 1.6 | 3.2 | 0.00 | 0.00 | 0.00 | 86 | 1014.1 |
| 20260509090709 | 15 | 223 | 1.6 | 3.2 | 0.00 | 0.00 | 0.00 | 85 | 1014.1 |
| 20260509090207 | 15 | 223 | 1.6 | 4.8 | 0.00 | 0.00 | 0.00 | 85 | 1014.1 |
| 20260509085705 | 15 | 223 | 1.6 | 4.8 | 0.00 | 0.00 | 0.00 | 85 | 1014.1 |
| 20260509085204 | 15 | 223 | 1.6 | 3.2 | 0.00 | 0.00 | 0.00 | 85 | 1014.2 |
| 20260509084701 | 15 | 223 | 1.6 | 3.2 | 0.00 | 0.00 | 0.00 | 85 | 1014.2 |
| 20260509084201 | 15 | 223 | 1.6 | 3.2 | 0.00 | 0.00 | 0.00 | 85 | 1014.2 |
| 20260509083701 | 15 | 223 | 1.6 | 3.2 | 0.00 | 0.00 | 0.00 | 85 | 1014.3 |
| 20260509083158 | 15 | 223 | 0.0 | 3.2 | 0.00 | 0.00 | 0.00 | 85 | 1014.3 |
| 20260509082657 | 15 | 223 | 1.6 | 3.2 | 0.00 | 0.00 | 0.00 | 85 | 1014.3 |
| 20260509082158 | 15 | 223 | 1.6 | 3.2 | 0.00 | 0.00 | 0.00 | 85 | 1014.3 |
| 20260509081657 | 15 | 223 | 0.0 | 3.2 | 0.00 | 0.00 | 0.00 | 85 | 1014.3 |
| 20260509081156 | 15 | 223 | 0.0 | 3.2 | 0.00 | 0.00 | 0.00 | 84 | 1014.4 |
| 20260509080655 | 15 | 223 | 1.6 | 3.2 | 0.00 | 0.00 | 0.00 | 85 | 1014.4 |
| 20260509080155 | 15 | 223 | 0.0 | 3.2 | 0.00 | 0.00 | 0.00 | 85 | 1014.5 |
| 20260509075653 | 15 | 223 | 0.0 | 3.2 | 0.00 | 0.00 | 0.00 | 85 | 1014.5 |
| 20260509075152 | 15 | 223 | 1.6 | 3.2 | 0.00 | 0.00 | 0.00 | 84 | 1014.5 |
| 20260509074922 | 15 | 223 | 1.6 | 3.2 | 0.00 | 0.00 | 0.00 | 84 | 1014.5 |
| 20260509074148 | 15 | 223 | 0.0 | 3.2 | 0.00 | 0.00 | 0.00 | 84 | 1014.6 |
| 20260509073648 | 15 | 223 | 1.6 | 4.8 | 0.00 | 0.00 | 0.00 | 84 | 1014.5 |
| 20260509073143 | 15 | 223 | 1.6 | 4.8 | 0.00 | 0.00 | 0.00 | 84 | 1014.5 |
| 20260509072641 | 16 | 223 | 0.0 | 4.8 | 0.00 | 0.00 | 0.00 | 84 | 1014.5 |
| 20260509072140 | 16 | 223 | 1.6 | 4.8 | 0.00 | 0.00 | 0.00 | 84 | 1014.5 |
| 20260509071640 | 16 | 223 | 1.6 | 3.2 | 0.00 | 0.00 | 0.00 | 84 | 1014.5 |
| 20260509071141 | 16 | 223 | 1.6 | 4.8 | 0.00 | 0.00 | 0.00 | 84 | 1014.5 |
| 20260509070641 | 16 | 223 | 1.6 | 6.4 | 0.00 | 0.00 | 0.00 | 83 | 1014.6 |
| 20260509070412 | 16 | 223 | 0.0 | 6.4 | 0.00 | 0.00 | 0.00 | 84 | 1014.6 |
| 20260509065640 | 16 | 223 | 1.6 | 4.8 | 0.00 | 0.00 | 0.00 | 83 | 1014.6 |
| 20260509065140 | 16 | 223 | 1.6 | 4.8 | 0.00 | 0.00 | 0.00 | 83 | 1014.6 |
| 20260509064636 | 16 | 223 | 1.6 | 4.8 | 0.00 | 0.00 | 0.00 | 83 | 1014.6 |
| 20260509064409 | 16 | 223 | 1.6 | 4.8 | 0.00 | 0.00 | 0.00 | 83 | 1014.7 |
| 20260509063637 | 16 | 223 | 1.6 | 4.8 | 0.00 | 0.00 | 0.00 | 83 | 1014.7 |
| 20260509063133 | 16 | 223 | 0.0 | 4.8 | 0.00 | 0.00 | 0.00 | 82 | 1014.7 |
| 20260509062633 | 16 | 223 | 1.6 | 6.4 | 0.00 | 0.00 | 0.00 | 82 | 1014.7 |
| 20260509062133 | 16 | 223 | 3.2 | 8.0 | 0.00 | 0.00 | 0.00 | 82 | 1014.7 |
| 20260509061632 | 16 | 223 | 3.2 | 8.0 | 0.00 | 0.00 | 0.00 | 82 | 1014.7 |
| 20260509061129 | 16 | 223 | 3.2 | 8.0 | 0.00 | 0.00 | 0.00 | 82 | 1014.7 |
| 20260509060629 | 16 | 223 | 3.2 | 6.4 | 0.00 | 0.00 | 0.00 | 82 | 1014.8 |
| 20260509060124 | 16 | 223 | 3.2 | 8.0 | 0.00 | 0.00 | 0.00 | 81 | 1014.7 |
| 20260509055620 | 16 | 223 | 3.2 | 8.0 | 0.00 | 0.00 | 0.00 | 81 | 1014.7 |
| 20260509055120 | 16 | 223 | 3.2 | 8.0 | 0.00 | 0.00 | 0.00 | 81 | 1014.7 |
| 20260509054619 | 17 | 223 | 4.8 | 9.7 | 0.00 | 0.00 | 0.00 | 81 | 1014.7 |
| 20260509054117 | 17 | 223 | 4.8 | 9.7 | 0.00 | 0.00 | 0.00 | 80 | 1014.7 |
| 20260509053617 | 17 | 223 | 4.8 | 8.0 | 0.00 | 0.00 | 0.00 | 80 | 1014.7 |
| 20260509053110 | 17 | 223 | 4.8 | 8.0 | 0.00 | 0.00 | 0.00 | 80 | 1014.7 |
| 20260509052608 | 17 | 223 | 4.8 | 9.7 | 0.00 | 0.00 | 0.00 | 79 | 1014.8 |
| 20260509052107 | 17 | 223 | 3.2 | 9.7 | 0.00 | 0.00 | 0.00 | 79 | 1014.8 |
| 20260509051838 | 17 | 223 | 3.2 | 6.4 | 0.00 | 0.00 | 0.00 | 79 | 1014.8 |
| 20260509051352 | 17 | 223 | 4.8 | 11.3 | 0.00 | 0.00 | 0.00 | 79 | 1014.8 |
| 20260509050606 | 17 | 223 | 4.8 | 11.3 | 0.00 | 0.00 | 0.00 | 79 | 1014.7 |
| 20260509050339 | 17 | 225 | 4.8 | 9.7 | 0.00 | 0.00 | 0.00 | 78 | 1014.6 |
| 20260509045606 | 17 | 224 | 6.4 | 12.9 | 0.00 | 0.00 | 0.00 | 78 | 1014.6 |
| 20260509045338 | 17 | 224 | 4.8 | 12.9 | 0.00 | 0.00 | 0.00 | 78 | 1014.7 |
| 20260509044606 | 18 | 225 | 4.8 | 11.3 | 0.00 | 0.00 | 0.00 | 77 | 1014.6 |
| 20260509044107 | 18 | 225 | 4.8 | 11.3 | 0.00 | 0.00 | 0.00 | 77 | 1014.4 |
| 20260509043608 | 18 | 225 | 4.8 | 9.7 | 0.00 | 0.00 | 0.00 | 76 | 1014.4 |
| 20260509043107 | 18 | 225 | 4.8 | 11.3 | 0.00 | 0.00 | 0.00 | 76 | 1014.4 |
| 20260509042604 | 18 | 225 | 6.4 | 11.3 | 0.00 | 0.00 | 0.00 | 76 | 1014.3 |
| 20260509042103 | 18 | 225 | 4.8 | 9.7 | 0.00 | 0.00 | 0.00 | 75 | 1014.2 |
| 20260509041601 | 18 | 225 | 4.8 | 11.3 | 0.00 | 0.00 | 0.00 | 74 | 1014.2 |
| 20260509041057 | 18 | 225 | 6.4 | 11.3 | 0.00 | 0.00 | 0.00 | 74 | 1014.1 |
| 20260509040554 | 18 | 225 | 6.4 | 11.3 | 0.00 | 0.00 | 0.00 | 74 | 1014.1 |
| 20260509040108 | 19 | 225 | 6.4 | 11.3 | 0.00 | 0.00 | 0.00 | 73 | 1014.0 |
| 20260509035552 | 19 | 225 | 6.4 | 11.3 | 0.00 | 0.00 | 0.00 | 73 | 1014.0 |
| 20260509035322 | 19 | 225 | 8.0 | 16.1 | 0.00 | 0.00 | 0.00 | 72 | 1013.9 |
| 20260509034545 | 19 | 226 | 8.0 | 16.1 | 0.00 | 0.00 | 0.00 | 71 | 1013.9 |
| 20260509034046 | 20 | 224 | 8.0 | 16.1 | 0.00 | 0.00 | 0.00 | 71 | 1013.9 |
| 20260509033545 | 20 | 223 | 6.4 | 14.5 | 0.00 | 0.00 | 0.00 | 70 | 1013.8 |
| 20260509033044 | 20 | 224 | 8.0 | 14.5 | 0.00 | 0.00 | 0.00 | 70 | 1013.8 |
| 20260509032546 | 20 | 226 | 9.7 | 16.1 | 0.00 | 0.00 | 0.00 | 69 | 1013.7 |
| 20260509031544 | 20 | 226 | 8.0 | 12.9 | 0.00 | 0.00 | 0.00 | 68 | 1013.6 |
| 20260509031043 | 20 | 226 | 9.7 | 14.5 | 0.00 | 0.00 | 0.00 | 68 | 1013.5 |
| 20260509030813 | 20 | 227 | 8.0 | 16.1 | 0.00 | 0.00 | 0.00 | 67 | 1013.5 |
| 20260509030053 | 21 | 226 | 9.7 | 16.1 | 0.00 | 0.00 | 0.00 | 67 | 1013.3 |
| 20260509025541 | 21 | 223 | 9.7 | 16.1 | 0.00 | 0.00 | 0.00 | 66 | 1013.3 |
| 20260509025034 | 21 | 215 | 8.0 | 16.1 | 0.00 | 0.00 | 0.00 | 65 | 1013.2 |
| 20260509024035 | 21 | 224 | 8.0 | 16.1 | 0.00 | 0.00 | 0.00 | 64 | 1013.1 |
| 20260509023806 | 22 | 224 | 9.7 | 17.7 | 0.00 | 0.00 | 0.00 | 63 | 1013.0 |
| 20260509023035 | 22 | 221 | 9.7 | 17.7 | 0.00 | 0.00 | 0.00 | 62 | 1013.0 |
| 20260509022535 | 22 | 226 | 11.3 | 19.3 | 0.00 | 0.00 | 0.00 | 62 | 1013.0 |
| 20260509022034 | 22 | 232 | 11.3 | 19.3 | 0.00 | 0.00 | 0.00 | 61 | 1012.9 |
| 20260509021806 | 23 | 225 | 11.3 | 19.3 | 0.00 | 0.00 | 0.00 | 60 | 1012.8 |
| 20260509021034 | 23 | 229 | 11.3 | 20.9 | 0.00 | 0.00 | 0.00 | 59 | 1012.8 |
| 20260509020805 | 23 | 213 | 11.3 | 20.9 | 0.00 | 0.00 | 0.00 | 58 | 1012.8 |
| 20260509020034 | 24 | 222 | 9.7 | 17.7 | 0.00 | 0.00 | 0.00 | 56 | 1012.7 |
| 20260509015535 | 24 | 223 | 11.3 | 19.3 | 0.00 | 0.00 | 0.00 | 56 | 1012.7 |
| 20260509015035 | 24 | 240 | 11.3 | 19.3 | 0.00 | 0.00 | 0.00 | 55 | 1012.6 |
| 20260509014807 | 25 | 229 | 9.7 | 17.7 | 0.00 | 0.00 | 0.00 | 54 | 1012.6 |
| 20260509014032 | 25 | 221 | 9.7 | 19.3 | 0.00 | 0.00 | 0.00 | 53 | 1012.6 |
| 20260509013531 | 25 | 238 | 11.3 | 19.3 | 0.00 | 0.00 | 0.00 | 52 | 1012.5 |
| 20260509013031 | 26 | 219 | 12.9 | 20.9 | 0.00 | 0.00 | 0.00 | 52 | 1012.5 |
| 20260509012532 | 26 | 218 | 12.9 | 20.9 | 0.00 | 0.00 | 0.00 | 51 | 1012.5 |
| 20260509012026 | 26 | 225 | 12.9 | 20.9 | 0.00 | 0.00 | 0.00 | 51 | 1012.6 |
| 20260509011527 | 26 | 226 | 14.5 | 24.1 | 0.00 | 0.00 | 0.00 | 51 | 1012.5 |
| 20260509011025 | 26 | 223 | 12.9 | 24.1 | 0.00 | 0.00 | 0.00 | 49 | 1012.5 |
| 20260509010526 | 27 | 223 | 9.7 | 17.7 | 0.00 | 0.00 | 0.00 | 48 | 1012.3 |
| 20260509010025 | 27 | 220 | 9.7 | 17.7 | 0.00 | 0.00 | 0.00 | 47 | 1012.3 |
| 20260509005524 | 27 | 226 | 9.7 | 17.7 | 0.00 | 0.00 | 0.00 | 47 | 1012.5 |
| 20260509005024 | 27 | 227 | 9.7 | 16.1 | 0.00 | 0.00 | 0.00 | 48 | 1012.5 |
| 20260509004757 | 27 | 220 | 11.3 | 19.3 | 0.00 | 0.00 | 0.00 | 48 | 1012.6 |
| 20260509003522 | 28 | 203 | 9.7 | 16.1 | 0.00 | 0.00 | 0.00 | 46 | 1012.6 |
| 20260509003021 | 28 | 232 | 9.7 | 17.7 | 0.00 | 0.00 | 0.00 | 45 | 1012.6 |
| 20260509002753 | 28 | 227 | 9.7 | 17.7 | 0.00 | 0.00 | 0.00 | 46 | 1012.5 |
| 20260509001514 | 28 | 250 | 11.3 | 22.5 | 0.00 | 0.00 | 0.00 | 46 | 1012.6 |
| 20260509001013 | 28 | 265 | 11.3 | 24.1 | 0.00 | 0.00 | 0.00 | 46 | 1012.6 |
| 20260509000512 | 28 | 264 | 11.3 | 24.1 | 0.00 | 0.00 | 0.00 | 45 | 1012.6 |
| 20260509000012 | 28 | 241 | 12.9 | 27.4 | 0.00 | 0.00 | 0.00 | 45 | 1012.6 |
| 20260508235513 | 28 | 250 | 11.3 | 27.4 | 0.00 | 0.00 | 0.00 | 46 | 1012.6 |
| 20260508235010 | 27 | 271 | 12.9 | 22.5 | 0.00 | 0.00 | 0.00 | 47 | 1012.7 |
| 20260508234511 | 27 | 223 | 12.9 | 22.5 | 0.00 | 0.00 | 0.00 | 46 | 1012.7 |
| 20260508234005 | 28 | 212 | 11.3 | 20.9 | 0.00 | 0.00 | 0.00 | 46 | 1012.7 |
| 20260508233504 | 28 | 247 | 12.9 | 20.9 | 0.00 | 0.00 | 0.00 | 45 | 1012.7 |
| 20260508233004 | 28 | 223 | 11.3 | 20.9 | 0.00 | 0.00 | 0.00 | 45 | 1012.7 |
| 20260508232504 | 28 | 223 | 9.7 | 20.9 | 0.00 | 0.00 | 0.00 | 45 | 1012.7 |
| 20260508232236 | 28 | 253 | 11.3 | 17.7 | 0.00 | 0.00 | 0.00 | 45 | 1012.8 |
| 20260508231504 | 28 | 256 | 9.7 | 17.7 | 0.00 | 0.00 | 0.00 | 44 | 1012.9 |
| 20260508231005 | 28 | 248 | 9.7 | 16.1 | 0.00 | 0.00 | 0.00 | 44 | 1012.9 |
| 20260508230503 | 28 | 252 | 9.7 | 19.3 | 0.00 | 0.00 | 0.00 | 45 | 1013.0 |
| 20260508230004 | 28 | 246 | 11.3 | 19.3 | 0.00 | 0.00 | 0.00 | 45 | 1013.1 |
| 20260508225501 | 28 | 243 | 11.3 | 20.9 | 0.00 | 0.00 | 0.00 | 46 | 1013.1 |
| 20260508225233 | 28 | 268 | 12.9 | 20.9 | 0.00 | 0.00 | 0.00 | 46 | 1013.1 |
| 20260508224458 | 28 | 221 | 12.9 | 20.9 | 0.00 | 0.00 | 0.00 | 46 | 1013.2 |
| 20260508223958 | 28 | 225 | 11.3 | 20.9 | 0.00 | 0.00 | 0.00 | 46 | 1013.2 |
| 20260508223458 | 29 | 213 | 11.3 | 19.3 | 0.00 | 0.00 | 0.00 | 45 | 1013.3 |
| 20260508223000 | 28 | 242 | 9.7 | 19.3 | 0.00 | 0.00 | 0.00 | 46 | 1013.3 |
| 20260508222459 | 28 | 229 | 9.7 | 19.3 | 0.00 | 0.00 | 0.00 | 46 | 1013.4 |
| 20260508221959 | 28 | 250 | 9.7 | 19.3 | 0.00 | 0.00 | 0.00 | 47 | 1013.4 |
| 20260508221500 | 28 | 247 | 11.3 | 19.3 | 0.00 | 0.00 | 0.00 | 46 | 1013.4 |
| 20260508221000 | 28 | 223 | 11.3 | 22.5 | 0.00 | 0.00 | 0.00 | 46 | 1013.5 |
| 20260508220731 | 28 | 221 | 11.3 | 22.5 | 0.00 | 0.00 | 0.00 | 45 | 1013.5 |
| 20260508215959 | 28 | 223 | 9.7 | 17.7 | 0.00 | 0.00 | 0.00 | 46 | 1013.5 |
| 20260508215459 | 28 | 206 | 9.7 | 20.9 | 0.00 | 0.00 | 0.00 | 45 | 1013.6 |
| 20260508214959 | 28 | 221 | 8.0 | 20.9 | 0.00 | 0.00 | 0.00 | 45 | 1013.6 |
| 20260508214459 | 28 | 226 | 9.7 | 19.3 | 0.00 | 0.00 | 0.00 | 45 | 1013.6 |
| 20260508213958 | 28 | 211 | 9.7 | 19.3 | 0.00 | 0.00 | 0.00 | 45 | 1013.6 |
| 20260508213456 | 28 | 225 | 8.0 | 16.1 | 0.00 | 0.00 | 0.00 | 46 | 1013.7 |
| 20260508212957 | 29 | 237 | 6.4 | 14.5 | 0.00 | 0.00 | 0.00 | 45 | 1013.7 |
| 20260508212457 | 29 | 227 | 8.0 | 16.1 | 0.00 | 0.00 | 0.00 | 45 | 1013.8 |
| 20260508211957 | 29 | 263 | 8.0 | 16.1 | 0.00 | 0.00 | 0.00 | 45 | 1013.8 |
| 20260508211455 | 29 | 265 | 6.4 | 16.1 | 0.00 | 0.00 | 0.00 | 45 | 1013.9 |
| 20260508211225 | 29 | 244 | 6.4 | 11.3 | 0.00 | 0.00 | 0.00 | 45 | 1013.9 |
| 20260508210450 | 29 | 238 | 6.4 | 12.9 | 0.00 | 0.00 | 0.00 | 45 | 1014.0 |
| 20260508205948 | 28 | 227 | 4.8 | 12.9 | 0.00 | 0.00 | 0.00 | 45 | 1014.0 |
| 20260508205450 | 28 | 223 | 3.2 | 11.3 | 0.00 | 0.00 | 0.00 | 46 | 1014.1 |
| 20260508204944 | 28 | 229 | 6.4 | 12.9 | 0.00 | 0.00 | 0.00 | 45 | 1014.3 |
| 20260508204441 | 28 | 246 | 8.0 | 14.5 | 0.00 | 0.00 | 0.00 | 48 | 1014.4 |
| 20260508203940 | 28 | 220 | 6.4 | 14.5 | 0.00 | 0.00 | 0.00 | 46 | 1014.4 |
| 20260508203713 | 28 | 212 | 6.4 | 12.9 | 0.00 | 0.00 | 0.00 | 46 | 1014.4 |
| 20260508202942 | 28 | 212 | 4.8 | 11.3 | 0.00 | 0.00 | 0.00 | 46 | 1014.4 |
| 20260508202438 | 28 | 228 | 4.8 | 11.3 | 0.00 | 0.00 | 0.00 | 46 | 1014.5 |
| 20260508201938 | 27 | 238 | 4.8 | 11.3 | 0.00 | 0.00 | 0.00 | 49 | 1014.5 |
| 20260508201438 | 27 | 203 | 4.8 | 9.7 | 0.00 | 0.00 | 0.00 | 49 | 1014.6 |
| 20260508201210 | 27 | 202 | 6.4 | 12.9 | 0.00 | 0.00 | 0.00 | 48 | 1014.6 |
| 20260508200438 | 27 | 200 | 4.8 | 12.9 | 0.00 | 0.00 | 0.00 | 49 | 1014.6 |
| 20260508195939 | 27 | 224 | 4.8 | 9.7 | 0.00 | 0.00 | 0.00 | 49 | 1014.7 |
| 20260508195709 | 26 | 212 | 4.8 | 9.7 | 0.00 | 0.00 | 0.00 | 52 | 1014.7 |
| 20260508195208 | 26 | 205 | 4.8 | 11.3 | 0.00 | 0.00 | 0.00 | 52 | 1014.9 |
| 20260508194437 | 26 | 198 | 4.8 | 11.3 | 0.00 | 0.00 | 0.00 | 51 | 1014.9 |
| 20260508193938 | 26 | 207 | 4.8 | 11.3 | 0.00 | 0.00 | 0.00 | 51 | 1014.9 |
| 20260508193706 | 26 | 230 | 4.8 | 9.7 | 0.00 | 0.00 | 0.00 | 54 | 1015.0 |
| 20260508192935 | 26 | 223 | 6.4 | 11.3 | 0.00 | 0.00 | 0.00 | 54 | 1015.2 |